Weather History for Manistique, MI

Change the Weather History Date:

Saturday, March 1, 2014

  Actual Average Record
Temperature  
Mean Temperature 2 °F -  
Max Temperature 12 °F 31 °F 47 °F (1985)
Min Temperature -10 °F 12 °F -23 °F (1962)
Degree Days  
Heating Degree Days 63    
Moisture  
Dew Point -4 °F    
Average Humidity 67    
Maximum Humidity 81    
Minimum Humidity 51    
Precipitation  
Precipitation 0.00 in - - ()
Sea Level Pressure  
Sea Level Pressure 30.17 in    
Wind  
Wind Speed 9 mph (NW)    
Max Wind Speed 17 mph    
Max Gust Speed 25 mph    
Visibility 10 miles    
Events Snow    
Averages and records for this station are not official NWS values.
T = Trace of Precipitation, MM = Missing Value Source: NWS Daily Summary

Daily Weather History Graph

Daily Weather History Graph

Search for Another Location

Airport:

Trip Planner

Search our weather history database for the weather conditions in past years. The results will help you decide how hot, cold, wet, or windy it might be!

Date:

Astronomy

Mar. 01, 2014 Rise Set
Actual Time 7:23 AM EST 6:31 PM EST
Civil Twilight 6:53 AM EST 7:01 PM EST
Nautical Twilight 6:18 AM EST 7:35 PM EST
Astronomical Twilight 5:44 AM EST 8:10 PM EST
Moon 7:13 AM EST (3/1) 7:22 PM EST (3/1)
Length of Visible Light 12h 07m
Length of Day
11h 07m
New Moon, 0% of the Moon is Illuminated
Mar 1
New Moon
Mar 8
First Quarter
Mar 16
Full
Mar 23
Last Quarter
Mar 30
New

Hourly Weather History & Observations

Time (EST) Temp. Windchill Dew Point Humidity Pressure Visibility Wind Dir Wind Speed Gust Speed Precip Events Conditions
12:15 AM 12.9 °F -0.2 °F 7.5 °F 79% 29.96 in 10.0 mi West 10.4 mph 16.1 mph N/A   Mostly Cloudy
12:35 AM 12.2 °F -0.2 °F 6.3 °F 77% 29.96 in 10.0 mi West 9.2 mph 18.4 mph N/A   Scattered Clouds
12:55 AM 11.7 °F -1.7 °F 5.7 °F 77% 29.96 in 10.0 mi West 10.4 mph - N/A   Clear
1:15 AM 11.1 °F 1.7 °F 5.2 °F 77% 29.97 in 10.0 mi West 5.8 mph - N/A   Scattered Clouds
1:35 AM 10.9 °F 0.2 °F 5.0 °F 77% 29.98 in 10.0 mi West 6.9 mph - N/A   Mostly Cloudy
1:54 AM 10.4 °F -1.5 °F 4.8 °F 78% 29.99 in 10.0 mi West 8.1 mph - N/A   Mostly Cloudy
2:15 AM 9.5 °F -0.3 °F 3.9 °F 78% 29.99 in 10.0 mi WNW 5.8 mph - N/A   Mostly Cloudy
2:35 AM 9.0 °F -2.2 °F 3.4 °F 78% 30.00 in 10.0 mi WNW 6.9 mph - N/A   Scattered Clouds
2:55 AM 9.0 °F -0.9 °F 3.4 °F 78% 29.99 in 10.0 mi WNW 5.8 mph - N/A   Scattered Clouds
3:15 AM 9.5 °F -3.5 °F 3.2 °F 76% 29.99 in 10.0 mi WNW 9.2 mph - N/A   Overcast
3:35 AM 9.5 °F -2.6 °F 3.0 °F 75% 30.00 in 10.0 mi WNW 8.1 mph - N/A   Overcast
3:55 AM 8.6 °F -5.5 °F 2.1 °F 75% 30.00 in 10.0 mi WNW 10.4 mph 16.1 mph N/A   Scattered Clouds
4:15 AM 8.4 °F -5.7 °F 1.9 °F 75% 30.00 in 10.0 mi WNW 10.4 mph 16.1 mph N/A   Scattered Clouds
4:35 AM 8.1 °F -5.3 °F 1.4 °F 74% 30.01 in 10.0 mi WNW 9.2 mph - N/A   Clear
4:55 AM 7.0 °F -6.6 °F 0.9 °F 76% 30.02 in 10.0 mi NW 9.2 mph - N/A   Clear
5:15 AM 6.4 °F -7.3 °F 0.7 °F 77% 30.03 in 10.0 mi WNW 9.2 mph - N/A   Scattered Clouds
5:34 AM 5.9 °F -8.0 °F 0.5 °F 78% 30.04 in 10.0 mi WNW 9.2 mph - N/A   Mostly Cloudy
5:55 AM 5.9 °F -8.9 °F 0.5 °F 78% 30.04 in 7.0 mi WNW 10.4 mph - N/A Snow Light Snow
6:15 AM 5.0 °F -9.1 °F -0.2 °F 79% 30.06 in 10.0 mi WNW 9.2 mph - N/A   Scattered Clouds
6:35 AM 4.8 °F -8.3 °F -0.4 °F 79% 30.07 in 10.0 mi NW 8.1 mph - N/A   Clear
6:55 AM 4.6 °F -11.3 °F -0.8 °F 78% 30.08 in 10.0 mi NW 11.5 mph - N/A   Clear
7:15 AM 4.3 °F -9.0 °F -1.3 °F 78% 30.08 in 10.0 mi NW 8.1 mph - N/A   Clear
7:35 AM 3.0 °F -9.3 °F -2.2 °F 79% 30.10 in 7.0 mi WNW 6.9 mph - N/A   Scattered Clouds
7:55 AM 3.4 °F -8.9 °F -1.5 °F 80% 30.10 in 5.0 mi WNW 6.9 mph - N/A Snow Light Snow
8:15 AM 4.5 °F -6.3 °F -0.6 °F 80% 30.11 in 3.0 mi WNW 5.8 mph - N/A Snow Light Snow
8:35 AM 4.8 °F -7.1 °F -0.6 °F 78% 30.13 in 10.0 mi WNW 6.9 mph - N/A   Mostly Cloudy
8:55 AM 5.9 °F -5.8 °F -0.2 °F 76% 30.14 in 10.0 mi NW 6.9 mph - N/A   Scattered Clouds
9:15 AM 6.8 °F -7.8 °F -1.3 °F 69% 30.16 in 10.0 mi NW 10.4 mph 23.0 mph N/A   Mostly Cloudy
9:35 AM 6.6 °F -9.5 °F -2.6 °F 66% 30.16 in 10.0 mi NW 12.7 mph 18.4 mph N/A   Overcast
9:54 AM 6.6 °F -10.9 °F -1.1 °F 71% 30.16 in 5.0 mi NNW 15.0 mph 20.7 mph N/A   Haze
10:15 AM 7.2 °F -10.2 °F -3.1 °F 63% 30.17 in 10.0 mi NNW 15.0 mph 20.7 mph N/A   Mostly Cloudy
10:35 AM 6.8 °F -8.6 °F -3.5 °F 63% 30.18 in 10.0 mi NNW 11.5 mph - N/A   Mostly Cloudy
10:55 AM 7.0 °F -8.3 °F -4.2 °F 60% 30.18 in 10.0 mi NW 11.5 mph 18.4 mph N/A   Mostly Cloudy
11:15 AM 7.0 °F -11.6 °F -5.6 °F 56% 30.18 in 10.0 mi NNW 17.3 mph - N/A   Mostly Cloudy
11:35 AM 7.5 °F -9.1 °F -6.5 °F 53% 30.19 in 10.0 mi North 13.8 mph 19.6 mph N/A   Scattered Clouds
11:55 AM 6.6 °F -8.0 °F -7.4 °F 53% 30.20 in 10.0 mi North 10.4 mph 17.3 mph N/A   Scattered Clouds
12:15 PM 7.7 °F -6.6 °F -6.0 °F 54% 30.20 in 10.0 mi NW 10.4 mph - N/A   Scattered Clouds
12:35 PM 7.7 °F -9.5 °F -6.2 °F 53% 30.20 in 10.0 mi North 15.0 mph 19.6 mph N/A   Mostly Cloudy
12:55 PM 7.9 °F -9.3 °F -4.9 °F 56% 30.20 in 10.0 mi NW 15.0 mph 18.4 mph N/A   Overcast
1:15 PM 7.3 °F -7.9 °F -6.0 °F 55% 30.21 in 10.0 mi NW 11.5 mph 19.6 mph N/A   Mostly Cloudy
1:34 PM 8.1 °F -7.7 °F -5.4 °F 54% 30.21 in 10.0 mi NW 12.7 mph 17.3 mph N/A   Mostly Cloudy
1:55 PM 7.9 °F -6.4 °F -5.4 °F 55% 30.22 in 10.0 mi NNW 10.4 mph 18.4 mph N/A   Overcast
2:15 PM 7.5 °F -6.9 °F -6.2 °F 54% 30.22 in 10.0 mi NNW 10.4 mph 21.9 mph N/A   Overcast
2:35 PM 8.1 °F -7.0 °F -6.9 °F 51% 30.20 in 10.0 mi NW 11.5 mph 15.0 mph N/A   Overcast
2:55 PM 7.7 °F -9.5 °F -6.3 °F 53% 30.22 in 10.0 mi NNW 15.0 mph 20.7 mph N/A   Overcast
3:15 PM 7.7 °F -7.4 °F -6.0 °F 54% 30.23 in 10.0 mi NW 11.5 mph 25.3 mph N/A   Overcast
3:35 PM 7.5 °F -9.1 °F -7.1 °F 51% 30.23 in 10.0 mi NW 13.8 mph 19.6 mph N/A   Mostly Cloudy
3:55 PM 7.0 °F -9.1 °F -7.8 °F 51% 30.24 in 10.0 mi NNW 12.7 mph 20.7 mph N/A   Scattered Clouds
4:15 PM 7.0 °F -7.5 °F -6.7 °F 54% 30.24 in 10.0 mi NNW 10.4 mph - N/A   Mostly Cloudy
4:35 PM 7.2 °F -8.1 °F -5.1 °F 57% 30.25 in 10.0 mi North 11.5 mph 18.4 mph N/A   Mostly Cloudy
4:55 PM 5.7 °F -9.9 °F -5.8 °F 59% 30.25 in 10.0 mi NNW 11.5 mph 16.1 mph N/A   Overcast
5:15 PM 5.0 °F -9.1 °F -8.1 °F 55% 30.26 in 10.0 mi NNW 9.2 mph - N/A   Mostly Cloudy
5:35 PM 4.8 °F -9.3 °F -8.7 °F 54% 30.27 in 10.0 mi NNW 9.2 mph - N/A   Clear
5:55 PM 3.9 °F -9.4 °F -9.4 °F 54% 30.27 in 10.0 mi NNW 8.1 mph - N/A   Clear
6:15 PM 3.7 °F -9.6 °F -9.6 °F 54% 30.29 in 10.0 mi NNW 8.1 mph - N/A   Clear
6:35 PM 3.2 °F -7.8 °F -9.4 °F 56% 30.29 in 10.0 mi North 5.8 mph - N/A   Scattered Clouds
6:54 PM 3.0 °F -9.3 °F -8.9 °F 58% 30.28 in 10.0 mi North 6.9 mph - N/A   Scattered Clouds
7:15 PM 2.8 °F -10.7 °F -9.4 °F 57% 30.28 in 10.0 mi NNW 8.1 mph - N/A   Clear
7:35 PM 2.1 °F -7.4 °F -9.4 °F 59% 30.29 in 10.0 mi North 4.6 mph - N/A   Clear
7:55 PM 0.3 °F -11.2 °F -10.3 °F 61% 30.29 in 10.0 mi North 5.8 mph - N/A   Clear
8:15 PM -0.6 °F -12.2 °F -10.5 °F 63% 30.31 in 10.0 mi NNW 5.8 mph - N/A   Clear
8:35 PM -1.7 °F -13.5 °F -10.8 °F 65% 30.31 in 10.0 mi North 5.8 mph - N/A   Clear
8:55 PM -2.2 °F -12.5 °F -11.2 °F 66% 30.32 in 10.0 mi NNW 4.6 mph - N/A   Clear
9:15 PM -2.7 °F -11.0 °F -11.2 °F 67% 30.32 in 10.0 mi North 3.5 mph - N/A   Clear
9:35 PM -2.9 °F -13.3 °F -11.2 °F 68% 30.33 in 10.0 mi NNW 4.6 mph - N/A   Clear
9:55 PM -3.8 °F - -11.6 °F 69% 30.34 in 10.0 mi Calm Calm - N/A   Clear
10:15 PM -4.9 °F - -11.7 °F 72% 30.34 in 10.0 mi Calm Calm - N/A   Clear
10:34 PM -7.8 °F - -14.1 °F 74% 30.34 in 10.0 mi Calm Calm - N/A   Clear
10:55 PM -8.3 °F - -13.7 °F 77% 30.33 in 10.0 mi Calm Calm - N/A   Clear
11:15 PM -8.3 °F - -13.2 °F 79% 30.33 in 10.0 mi Calm Calm - N/A   Clear
11:35 PM -8.5 °F - -13.2 °F 80% 30.34 in 10.0 mi Calm Calm - N/A   Clear
11:55 PM -10.7 °F -22.3 °F -15.0 °F 81% 30.34 in 10.0 mi West 4.6 mph - N/A   Clear